Flag for Spain Weather past 2 weeks in Pamplona, Spain

Now
52 °F

Partly sunny.


Feels Like: 48 °F
Forecast: 41 / 49 °F
Wind: 12 mph from Northwest

Location: Pamplona / Noain

Current Time: Dec 18, 2014 at 1:46:21 PM

Latest Report: Dec 18, 2014 at 1:00 PM


Visibility: N/A

Pressure: 30.39 "Hg

Humidity: 88%

Dew point: 48 °F

Location of PamplonaLocation

Historic Weather in Pamplona — Graph

°F

Pamplona temperature yesterday

Maximum temperature yesterday: 52 °F (at 12:30 PM)
Minimum temperature yesterday: 46 °F (at 12:00 AM)
Average temperature yesterday: 48 °F

Past Weeks' High & Low Weather Summary

 TemperatureHumidityPressure
High54 °F (Dec 13, 1:00 PM)100% (Dec 4, 5:30 AM)30.51 "Hg (Dec 4, 5:30 AM)
Low30 °F (Dec 4, 9:00 AM)57% (Dec 9, 2:00 PM)29.86 "Hg (Dec 3, 2:30 PM)
Average44 °F87%30.18 "Hg
* Reported Dec 3 12:00 Noon — Dec 18 12:30 PM, Pamplona, Weather by CustomWeather, © 2014

Note: Actual official high and low records may vary slightly from our data, if they occured in-between our weather recording intervals... More about our weather records

Advertising

Pamplona weather history for previous 24 hours

 ConditionsComfort  
Time TempWeatherWind HumidityBarometerVisibility
12:30 PM
Dec 18
52 °FPartly sunny.10 mph88%30.42 "HgN/A
12:00 PM52 °FPartly sunny.10 mph88%30.42 "HgN/A
11:30 AM52 °FPartly sunny.7 mph88%30.42 "HgN/A
11:00 AM52 °FPartly sunny.9 mph88%30.42 "HgN/A
10:30 AM50 °FPartly sunny.6 mph94%30.42 "HgN/A
10:00 AM48 °FPartly sunny.6 mph100%30.42 "HgN/A
9:30 AM48 °FPartly sunny.5 mph100%30.39 "HgN/A
9:00 AM48 °FPartly sunny.3 mph100%30.39 "HgN/A
8:30 AM48 °FPassing clouds.3 mph100%30.36 "HgN/A
8:00 AM48 °FPassing clouds.6 mph94%30.36 "HgN/A
7:30 AM48 °FPassing clouds.3 mph94%30.36 "HgN/A
7:00 AM48 °FPassing clouds.3 mph94%30.36 "HgN/A
6:30 AM48 °FPassing clouds.3 mph94%30.36 "HgN/A
6:00 AM48 °FPassing clouds.2 mph94%30.36 "HgN/A
5:30 AM48 °FPassing clouds.5 mph94%30.36 "HgN/A
12:00 AM48 °FPassing clouds.8 mph94%30.36 "HgN/A
11:30 PM
Dec 17
48 °FPassing clouds.8 mph94%30.36 "HgN/A
11:00 PM48 °FPassing clouds.9 mph87%30.33 "HgN/A
10:30 PM48 °FPassing clouds.3 mph94%30.33 "HgN/A
10:00 PM48 °FPassing clouds.1 mph94%30.36 "Hg6 mi
9:30 PM48 °FLight rain. Passing clouds.7 mph100%30.36 "Hg6 mi
9:00 PM48 °FLight rain. Passing clouds.7 mph100%30.33 "Hg4 mi
8:30 PM48 °FLight rain. Passing clouds.8 mph100%30.33 "Hg5 mi
8:00 PM48 °FLight rain. Passing clouds.9 mph100%30.33 "Hg4 mi
7:30 PM48 °FLight rain. Passing clouds.9 mph94%30.30 "HgN/A
7:00 PM48 °FLight rain. Passing clouds.8 mph100%30.30 "HgN/A
6:30 PM50 °FPassing clouds.8 mph88%30.30 "HgN/A
6:00 PM48 °FPassing clouds.12 mph100%30.30 "HgN/A
5:30 PM48 °FLight rain. Partly sunny.8 mph100%30.27 "Hg6 mi
5:00 PM48 °FLight rain. Partly sunny.13 mph100%30.27 "HgN/A
4:30 PM50 °FLight rain. Partly sunny.8 mph94%30.27 "HgN/A
4:00 PM50 °FLight rain. Fog.18 mph94%30.27 "Hg3 mi
3:30 PM52 °FPartly sunny.10 mph88%30.24 "HgN/A
3:00 PM52 °FPartly sunny.12 mph88%30.24 "Hg6 mi
2:30 PM52 °FLight rain. Partly sunny.14 mph94%30.24 "Hg5 mi
2:00 PM52 °FLight rain. Partly sunny.13 mph100%30.24 "Hg4 mi
1:30 PM52 °FPartly sunny.16 mph100%30.24 "HgN/A
1:00 PM52 °FLight rain. Partly sunny.7 mph100%30.24 "Hg6 mi
Weather by CustomWeather, © 2014

See weather overviewHow to use our weather pages